Other Surface Observations
Issued by NWS Charleston, SC

Home | Current Version | Previous Version | Text Only | Print | Product List | Glossary On
Versions: 1 2 3 4 5 6 7 8 9 10 11 12 13 14 15 16 17 18 19 20 21 22 23 24 25 26 27 28 29 30 31 32 33 34 35 36 37 38 39 40 41 42 43 44 45 46 47 48 49 50
284
SXUS52 KCHS 061428
OSOCHS

MARINE OBSERVATIONS
NATIONAL WEATHER SERVICE CHARLESTON SC
1000 AM EDT FRI MAY 06 2016

...DOWNTOWN CHARLESTON AND HARBOR...

CITY           SKY/WX    TMP DP  RH WIND       PRES   REMARKS
WATERFRONT PRK   N/A     58  47  66 W6        29.81F

...LAKE MOULTRIE...

CITY           SKY/WX    TMP DP  RH WIND       PRES   REMARKS
PINOPOLIS        N/A     61  50  67 W9        29.72F

...LAKE AND SUPPLEMENTAL COASTAL OBSERVATIONS...

STATION/POSITION TIME  TEMP    WIND        PRES    WAVE   SWELL
                       AIR SEA DIR/SP/G            HT/PER HT/PER/DIR
                 (UTC) (F)     (DEG/KT/KT) (MB)    (FT/S) (FT/S/D)
FORT PULASKI     1400   58 71  280/ 10/ 12 1011.5S
SAPELO ISLAND    1400   59     310/  5     1012.0S
WINYAH BAY       1345   57     290/  9     1008.0S
LAKE MURRAY      1400   62     340/  4/ 14 1009.8R
ACE BASIN NERRS  1300   54     280/  3     1011.0R


...C-MAN AND BUOY OBSERVATIONS...

STATION/POSITION TIME  TEMP    WIND        PRES    WAVE   SWELL
                       AIR SEA DIR/SP/G            HT/PER HT/PER/DIR
                 (UTC) (F)     (DEG/KT/KT) (MB)    (FT/S) (FT/S/D)
BUOY 41004       1250   59 72  300/ 16/ 19 1008.9    4/ 5
BUOY 41008       NOT AVBL
FOLLY BEACH CMAN 1400   61     290/  8/ 11 1010.2S
CAPERS NS BUOY   1408   59 69  290/ 12/ 17 1009.5R
FRIPP NS BUOY    1408   59 68  290/ 14/ 19 1010.2R
5E ST. MARYS GA  1321      70                N/A     3/ 4


STATION/POSITION TIME  TEMP    WIND        PRES    WAVE   SWELL
                       AIR SEA DIR/SP/G            HT/PER HT/PER/DIR
                 (UTC) (F)     (DEG/KT/KT) (MB)    (FT/S) (FT/S/D)
FRYING PAN BUOY  1400   58 72  290/ 16/ 19 1007.9R
BUOY 41025       1250   61 76  270/ 14/ 21 1004.8    5/ 8   5/ 70/ 8
CAPE LOOKOUT NC  1400   54     240/  9/ 13 1006.0R
BUOY 41002       1250   70 73  280/ 12/ 19 1007.7    8/ 9   7/230/ 9
BUOY 41010       1320   72 79  290/ 16/ 17 1009.6R
ST AUGUSTINE FL  1400   59 69  280/  8/ 10 1013.2R

$$




USA.gov is the U.S. government's official web portal to all federal, state and local government web resources and services.